C/2001 G1 ( LONEOS )

Japanese version
Home page
Updated on June 19, 2004

---------------------------------------------------------------------

* Profile

Discovery Date April 1, 2001
Magnitude 17.4 mag
Discoverer Lowell Observatory Near-Earth Object Search

* Pictures

* Orbital Elements

Epoch 2001 Oct. 18.0 TT = JDT 2452200.5
T 2001 Oct. 8.96339 TT                                  MPC
q   8.2355579            (2000.0)            P               Q
z  -0.0003103      Peri.  343.26813     -0.95752621     +0.00924154
 +/-0.0000087      Node   203.88976     -0.10466433     -0.94245716
e   1.0025553      Incl.   45.36840     -0.26867998     +0.33419919

* Finding Charts

* Magnitudes Graph

        m1 = -5.0 + 5 log d + 20.0 log r

---------------------------------------------------------------------

The orbital elements are calculated by Dr. Brian G. Marsden and printed on M.P.E.C. 2002-G37.
The charts are made with StellaNavigator Ver.2.0 for Windows (AstroArts / ASCII).
The magnitudes graphs are made with Comet for Windows.

---------------------------------------------------------------------

Copyright(C) Seiichi Yoshida (comet@aerith.net). All rights reserved.